Regional Weather Roundup
Issued by NWS Green Bay, WI

Home | Current Version | Previous Version | Text Only | Print | Product List | Glossary On
Versions: 1 2 3 4 5 6 7 8 9 10 11 12 13 14 15 16 17 18 19 20 21 22 23 24 25 26 27 28 29 30 31 32 33 34 35 36 37 38 39 40 41 42 43 44 45 46 47 48 49 50
000
ASUS43 KGRB 310811
RWRGRB

NORTH-CENTRAL AND NORTHEAST WISCONSIN REGIONAL WEATHER ROUNDUP
NATIONAL WEATHER SERVICE GREEN BAY WI
300 AM CDT TUE MAY 31 2016

WIZ005-009-010>012-018-019-310900-
NORTH CENTRAL WISCONSIN

CITY           SKY/WX    TMP DP  RH WIND       PRES   REMARKS
IRONWOOD       CLOUDY    54  48  82 E13       29.99S
MANITOWISH WTR NOT AVBL
ARBOR VITAE    CLOUDY    57  49  76 E3        30.02S
EAGLE RIVER      N/A     54  47  77 E5        30.03S
LAND O LAKES   CLOUDY    53  47  82 E5        30.06S
RHINELANDER    CLOUDY    56  48  74 E7        30.03R
PHILLIPS       CLOUDY    58  50  77 SE5       29.99S
ANTIGO         CLOUDY    55  49  80 CALM      30.05R
TOMAHAWK       CLOUDY    55  53  91 E3        30.02R
MERRILL        CLOUDY    57  55  93 CALM      30.02R
$$

WIZ013-073-310900-
NORTHEAST WISCONSIN

CITY           SKY/WX    TMP DP  RH WIND       PRES   REMARKS
IRON MOUNTAIN  CLOUDY    49  43  80 N7        30.06R
MARINETTE      CLOUDY    53  46  77 NE5       30.06R
OCONTO         MOCLDY    56  52  86 E6        30.04R
$$

WIZ017-030-035>037-045-310900-
CENTRAL WISCONSIN

CITY           SKY/WX    TMP DP  RH WIND       PRES   REMARKS
MEDFORD        CLOUDY    62  53  70 S9        30.00R
WAUSAU         CLOUDY    60  55  83 E6        29.98S
MOSINEE        CLOUDY    57  54  88 S6        30.02R
MARSHFIELD     CLOUDY    63  53  70 SW8       29.99S
WISC RAPIDS    CLOUDY    65  52  62 W5        30.02R
STEVENS POINT  CLOUDY    60  54  80 SW6       30.01R
WAUPACA        CLOUDY    60  60  99 CALM      30.00R
SHAWANO        PTCLDY    62  52  70 E10       30.04R
CLINTONVILLE   PTCLDY    59  52  77 NE8       30.02R
WAUTOMA        LGT RAIN N/A N/A N/A SW5       30.02R
$$

WIZ038-039-048-051-310900-
FOX VALLEY

CITY           SKY/WX    TMP DP  RH WIND       PRES   REMARKS
NWS GREEN BAY  CLOUDY    60  55  83 NE16      30.02R
APPLETON       CLOUDY    63  54  72 CALM      29.98S
OSHKOSH        MOCLDY    60  56  86 S5        29.98S
FOND DU LAC    PTCLDY    62  57  83 CALM      29.99S
$$

WIZ022-050-052-310900-
EAST CENTRAL WISCONSIN

CITY           SKY/WX    TMP DP  RH WIND       PRES   REMARKS
EPHRAIM        FAIR      53  47  82 NE9       30.03R
STURGEON BAY   NOT AVBL
MANITOWOC      MOCLDY    60  54  80 CALM      30.00S
SHEBOYGAN      PTCLDY    58  55  90 SW3       29.99F
$$

LMZ563-521-522-541>543-310900-
LAKESHORE

STATION/POSITION TIME  TEMP    WIND        PRES    VSBY  WAVE
                       AIR SEA DIR/SP/G                  HT/PER
                 (UTC) (F)     (DEG/KT/KT) (MB)    (MI)  (FT/S)
SHEBOYGAN LKSHOR 0800   64     230/  6/  6 1015.8F
KEWAUNEE LKSHORE 0700   58      20/ 12/ 16 1015.8R
NORTHPORT PIER   0700   55     360/  8/ 12 1016.9R
N MID LAKE BUOY  0750   51 49   10/ 16/ 17 1016.8R         2/ 3
CHAMBERS ISLAND  0700   56      10/ 15/ 20 1017.3R
MENOMINEE LKSHOR 0700   56      10/ 15/ 19 1015.6R
$$



USA.gov is the U.S. government's official web portal to all federal, state and local government web resources and services.